This is the latest recevied weather packets stored in our database for station/object KK7KHO. If no packets are shown the sender has not sent any weather packets the latest 10 day(s).
| Time | Temp. | Humidity | Pressure | Rain* | Wind** | Luminosity | Snow |
|---|---|---|---|---|---|---|---|
| 1777562706 | 11.67° C | 91% | 1021.1 hPa | 0 mm | - | 223 W/m² | - |
| 1777562406 | 11.67° C | 91% | 1021.2 hPa | 0 mm | - | 186 W/m² | - |
| 1777562102 | 11.11° C | 92% | 1021.2 hPa | 0 mm | - | 163 W/m² | - |
| 1777561800 | 11.67° C | 92% | 1021.2 hPa | 0 mm | - | 140 W/m² | - |
| 1777561490 | 11.11° C | 92% | 1021.2 hPa | 0 mm | - | 119 W/m² | - |
| 1777561185 | 10° C | 93% | 1021.3 hPa | 0 mm | - | 106 W/m² | - |
| 1777560880 | 10° C | 94% | 1021.3 hPa | 0 mm | - | 96 W/m² | - |
| 1777560578 | 9.44° C | 94% | 1021.5 hPa | 0 mm | - | 94 W/m² | - |
| 1777560276 | 9.44° C | 94% | 1021.2 hPa | 0 mm | - | 83 W/m² | - |
| 1777559973 | 9.44° C | 93% | 1021.1 hPa | 0 mm | - | 74 W/m² | - |
| 1777559673 | 10° C | 92% | 1020.9 hPa | 0 mm | - | 67 W/m² | - |
| 1777559366 | 10° C | 93% | 1021.1 hPa | 0 mm | - | 64 W/m² | - |
| 1777559062 | 9.44° C | 93% | 1021.2 hPa | 0 mm | - | 56 W/m² | - |
| 1777558756 | 9.44° C | 94% | 1021.1 hPa | 0 mm | - | 55 W/m² | - |
| 1777558453 | 8.89° C | 96% | 1021 hPa | 0 mm | - | 53 W/m² | - |
| 1777558149 | 8.89° C | 98% | 1021.1 hPa | 0 mm | - | 50 W/m² | - |
| 1777557844 | 7.78° C | 99% | 1021.2 hPa | 0 mm | - | 48 W/m² | - |
| 1777557542 | 7.78° C | 99% | 1021 hPa | 0 mm | - | 47 W/m² | - |
| 1777557238 | 7.22° C | 99% | 1021 hPa | 0 mm | - | 37 W/m² | - |
| 1777556934 | 7.22° C | 99% | 1021 hPa | 0 mm | - | 35 W/m² | - |
| 1777556629 | 6.67° C | 99% | 1021 hPa | 0 mm | - | 32 W/m² | - |
| 1777556325 | 6.67° C | 99% | 1021 hPa | 0 mm | - | 29 W/m² | - |
| 1777556021 | 6.67° C | 99% | 1021 hPa | 0 mm | - | 27 W/m² | - |
| 1777555716 | 6.67° C | 99% | 1021 hPa | 0 mm | - | 23 W/m² | - |
| 1777555413 | 6.67° C | 99% | 1021 hPa | 0 mm | - | 20 W/m² | - |
* Rain latest hour (hover to see other rain measurements)
** Current wind speed in m/s (hover to see current wind gust speed)